Waarnemingen

Advertentie
Mijn weer
Salon, Frankrijk (7648): temperatuur & dauwpunt: 15.01.2017 01:00:00 - 21.01.2017 01:00:00 (CET)Salon, Frankrijk (7648): temperatuur 5cm: 15.01.2017 01:00:00 - 21.01.2017 01:00:00 (CET)Salon, Frankrijk (7648): windsnelheid & windstoten: 15.01.2017 01:00:00 - 21.01.2017 01:00:00 (CET)Salon, Frankrijk (7648): windrichting: 15.01.2017 01:00:00 - 21.01.2017 01:00:00 (CET)Salon, Frankrijk (7648): luchtdruk: 15.01.2017 01:00:00 - 21.01.2017 01:00:00 (CET)Salon, Frankrijk (7648): zicht: 15.01.2017 01:00:00 - 21.01.2017 01:00:00 (CET)Salon, Frankrijk (7648): neerslag: 15.01.2017 01:00:00 - 21.01.2017 01:00:00 (CET)
Datum & Tijd tt [°C] td [°C] tt 5cm [°C] ff [km/u] ff [kn] fx [km/u] fx [kn] dd ppp [hPa] vv [km] rr [mm]
21.01.2017 01:00:00 - - - - - - - - - - -
21.01.2017 00:00:00 2,8 0,4 - 0 0 5 3 N 1026,4 17 0,0
20.01.2017 23:00:00 3,6 0,6 - 0 0 4 2 N 1026,4 10 0,0
20.01.2017 22:00:00 5,5 1,0 2,9 0 0 6 3 N 1026,3 15 0,0
20.01.2017 21:00:00 5,8 0,1 3,7 0 0 7 4 N 1026,3 17 0,0
20.01.2017 20:00:00 5,4 -1,8 3,1 4 2 9 5 O 1026,6 39 0,0
20.01.2017 19:00:00 5,8 -1,8 3,1 6 4 22 12 NNO 1026,4 30 0,0
20.01.2017 18:00:00 9,3 -1,2 - 15 8 31 17 OZO 1026,1 55 0,0
20.01.2017 17:00:00 11,4 -2,8 11,1 15 8 23 13 OZO 1025,6 53 0,0
20.01.2017 16:00:00 12,4 -1,9 - 9 5 26 14 NO 1025,5 29 -
20.01.2017 15:00:00 11,9 -2,4 13,7 19 10 31 17 NNO 1025,4 60 0,0
20.01.2017 14:00:00 11,4 -2,8 12,4 17 9 30 16 NO 1026,0 60 0,0
20.01.2017 13:00:00 10,4 -2,6 11,4 19 10 32 18 ONO 1026,9 60 0,0
20.01.2017 12:00:00 10,5 -2,6 12,0 19 10 31 17 ONO 1027,6 20 0,0
20.01.2017 11:00:00 6,0 -2,6 7,0 2 1 14 8 NNW 1028,5 12 0,0
20.01.2017 10:00:00 1,3 -2,8 -4,7 7 4 14 8 NNO 1028,6 12 0,0
20.01.2017 09:00:00 -4,9 -6,6 -8,2 0 0 5 3 N 1028,4 5 0,0
20.01.2017 08:00:00 -5,8 -7,5 -8,4 2 1 4 2 NNW 1028,3 6 0,0
20.01.2017 07:00:00 -6,0 -8,0 -8,1 0 0 6 4 N 1027,8 6 0,0
20.01.2017 06:00:00 -6,0 -8,4 -7,8 0 0 3 2 N 1027,7 7 0,0
20.01.2017 05:00:00 -5,5 -7,5 -8,0 0 0 6 3 N 1027,8 6 0,0
20.01.2017 04:00:00 -5,1 -7,1 - 0 0 4 2 N 1028,1 7 -
20.01.2017 03:00:00 -4,5 -6,8 -7,4 0 0 3 2 N 1028,1 6 0,0
20.01.2017 02:00:00 -4,0 -6,9 -6,9 0 0 2 1 N 1027,7 8 0,0
20.01.2017 01:00:00 -3,2 -6,3 -6,2 0 0 3 2 N 1027,8 9 0,0
20.01.2017 00:00:00 -2,1 -5,4 -4,5 0 0 6 3 N 1027,8 9 0,0
19.01.2017 23:00:00 -0,9 -5,7 - 2 1 9 5 NW 1027,7 12 0,0
19.01.2017 22:00:00 -0,9 -5,7 - 2 1 5 3 NNO 1027,7 13 -
19.01.2017 21:00:00 -0,6 -5,8 -2,1 3 2 13 7 NO 1027,3 15 0,0
19.01.2017 20:00:00 0,1 -5,5 -3,4 9 5 13 7 ZO 1026,9 8 0,0
19.01.2017 19:00:00 1,0 -6,8 - 5 3 18 10 NO 1026,4 16 -
19.01.2017 18:00:00 3,7 -6,0 0,9 7 4 23 13 NNW 1026,0 18 0,0
19.01.2017 17:00:00 5,7 -5,9 4,8 14 8 19 10 NW 1025,5 19 0,0
19.01.2017 16:00:00 7,1 -5,9 - 13 7 24 13 NNW 1025,4 19 -
19.01.2017 15:00:00 7,5 -5,9 - 18 10 29 16 NNW 1025,6 18 0,0
19.01.2017 14:00:00 7,4 -6,0 10,4 18 10 24 13 NW 1025,7 17 0,0
19.01.2017 13:00:00 6,5 -6,2 - 11 6 21 11 NW 1026,0 12 -
19.01.2017 12:00:00 5,5 -5,8 - 5 3 11 6 NW 1026,5 17 0,0
19.01.2017 11:00:00 3,2 -5,5 5,2 6 3 10 5 NNW 1026,5 14 0,0
19.01.2017 10:00:00 0,2 -5,2 -6,7 0 0 6 3 N 1026,6 11 0,0
19.01.2017 09:00:00 -6,2 -8,2 -9,9 0 0 5 3 N 1026,2 9 0,0
19.01.2017 08:00:00 -7,8 -9,9 - 0 0 4 2 N 1025,5 8 0,0
19.01.2017 07:00:00 -7,4 -9,6 - 0 0 4 2 N 1025,1 10 -
19.01.2017 06:00:00 -7,4 -9,6 -9,7 0 0 8 4 N 1024,6 9 0,0
19.01.2017 05:00:00 -6,7 -8,5 - 0 0 5 3 N 1024,3 8 0,0
19.01.2017 04:00:00 -7,0 -9,7 -9,2 0 0 3 2 N 1024,3 9 0,0
19.01.2017 03:00:00 -4,9 -8,1 -8,6 3 1 5 3 ZZO 1024,1 7 0,0
19.01.2017 02:00:00 -5,4 -8,8 -8,9 0 0 6 3 N 1023,8 8 0,0
19.01.2017 01:00:00 -4,2 -8,1 -6,8 4 2 13 7 - 1023,4 9 0,0
19.01.2017 00:00:00 -2,9 -7,4 - 2 1 11 6 N 1023,4 15 0,0
18.01.2017 23:00:00 -3,3 -8,0 -6,2 6 3 16 9 NNO 1023,4 16 0,0
18.01.2017 22:00:00 -2,8 -8,1 -5,8 5 3 16 9 N 1022,9 17 0,0
18.01.2017 21:00:00 -1,3 -7,4 -2,4 13 7 27 15 NNW 1022,7 20 0,0
18.01.2017 20:00:00 -0,4 -7,7 -1,6 18 10 35 19 N 1022,3 22 0,0
18.01.2017 19:00:00 0,4 -7,6 -0,6 17 9 36 20 N 1021,6 23 0,0
18.01.2017 18:00:00 1,4 -7,4 0,7 19 10 36 20 N 1021,3 25 0,0
18.01.2017 17:00:00 2,5 -7,4 2,1 21 12 38 20 NNW 1021,1 27 0,0
18.01.2017 16:00:00 4,3 -6,9 6,2 22 12 38 20 NNW 1021,2 20 0,0
18.01.2017 15:00:00 4,6 -6,6 5,6 23 12 42 23 NNW 1020,8 20 0,0
18.01.2017 14:00:00 4,4 -6,5 - 28 15 44 24 NNW 1020,5 19 0,0
18.01.2017 13:00:00 2,8 -6,9 - 24 13 42 23 NNW 1021,1 19 -
18.01.2017 12:00:00 1,4 -6,9 0,5 25 13 35 19 N 1021,8 20 0,0
18.01.2017 11:00:00 -0,4 -7,2 -0,3 20 11 35 19 N 1022,0 20 0,0
18.01.2017 10:00:00 -1,1 -7,5 -1,9 17 9 33 18 N 1021,8 23 0,0
18.01.2017 09:00:00 -1,9 -7,6 -3,4 10 5 33 18 N 1020,8 26 0,0
18.01.2017 08:00:00 -2,5 -7,8 -3,2 21 11 30 16 N 1020,2 10 0,0
18.01.2017 07:00:00 -2,2 -7,7 -3,2 18 10 34 19 NNW 1019,6 28 0,0
18.01.2017 06:00:00 -2,2 -7,7 -3,1 20 11 37 20 NNW 1019,1 30 0,0
18.01.2017 05:00:00 -2,0 -7,7 -3,0 17 9 37 20 NNW 1019,3 29 0,0
18.01.2017 04:00:00 -1,7 -7,8 -2,5 18 10 34 18 N 1019,1 33 0,0
18.01.2017 03:00:00 -1,5 -7,8 - 18 10 37 20 N 1019,6 50 0,0
18.01.2017 02:00:00 -1,2 -7,8 -1,8 22 12 41 22 NNW 1019,2 34 0,0
18.01.2017 01:00:00 -0,9 -7,7 -1,5 26 14 50 27 NNW 1019,1 35 0,0
18.01.2017 00:00:00 -0,7 -7,5 -1,3 33 18 50 27 NNW 1018,8 37 0,0
17.01.2017 23:00:00 -0,5 -7,5 -1,2 21 11 51 28 N 1019,0 36 0,0
17.01.2017 22:00:00 -0,1 -7,4 -0,6 32 17 64 35 NNW 1018,4 38 0,0
17.01.2017 21:00:00 0,2 -7,3 -0,4 41 22 63 34 NNW 1017,7 40 0,0
17.01.2017 20:00:00 0,4 -7,4 -0,2 40 21 63 34 NNW 1017,0 43 0,0
17.01.2017 19:00:00 0,5 -7,3 -0,1 38 21 59 32 NNW 1016,7 42 0,0
17.01.2017 18:00:00 0,7 -7,1 - 35 19 61 33 NNW 1016,5 40 0,0
17.01.2017 17:00:00 1,6 -7,2 1,4 36 20 61 33 NNW 1016,1 37 0,0
17.01.2017 16:00:00 2,6 -7,3 3,9 40 22 61 33 NNW 1016,0 28 0,0
17.01.2017 15:00:00 3,2 -7,6 4,8 34 18 56 30 NNW 1015,8 10 0,0
17.01.2017 14:00:00 3,6 -7,8 5,5 34 18 51 28 NNW 1016,0 20 0,0
17.01.2017 13:00:00 2,9 -8,2 4,8 34 18 52 28 NNW 1016,3 31 0,0
17.01.2017 12:00:00 2,4 -7,8 3,1 34 19 53 29 NNW 1016,5 34 0,0
17.01.2017 11:00:00 1,3 -8,3 1,6 32 17 56 30 NNW 1016,3 37 0,0
17.01.2017 10:00:00 0,0 -8,2 - 37 20 55 30 NNW 1015,9 35 -
17.01.2017 09:00:00 -1,4 -8,2 -2,3 38 20 56 30 NNW 1015,6 41 0,0
17.01.2017 08:00:00 -1,7 -8,0 -2,4 36 20 56 31 NNW 1015,3 40 0,0
17.01.2017 07:00:00 -1,4 -8,2 -2,2 35 19 56 31 NNW 1015,0 10 0,0
17.01.2017 06:00:00 -1,3 -8,3 -2,0 29 16 51 28 NNW 1014,6 10 0,0
17.01.2017 05:00:00 -1,2 -8,2 -1,8 32 18 53 29 NNW 1014,4 52 0,0
17.01.2017 04:00:00 -0,9 -7,9 -1,6 29 16 50 27 NNW 1014,5 10 0,0
17.01.2017 03:00:00 -0,6 -7,6 -1,3 32 17 51 28 NNW 1014,5 52 0,0
17.01.2017 02:00:00 -0,5 -7,5 -1,1 33 18 56 30 NNW 1014,4 53 0,0
17.01.2017 01:00:00 -0,2 -7,7 -0,8 32 17 56 31 NNW 1014,9 55 0,0
17.01.2017 00:00:00 0,0 -7,3 - 35 19 57 31 NNW 1015,0 50 0,0
16.01.2017 23:00:00 0,4 -6,9 -0,2 33 18 61 33 NNW 1014,9 53 0,0
16.01.2017 22:00:00 1,0 -6,3 0,5 38 20 61 33 NNW 1014,8 59 0,0
16.01.2017 21:00:00 1,4 -6,7 0,7 32 18 55 30 NNW 1014,6 60 0,0
16.01.2017 20:00:00 1,5 -5,7 0,9 37 20 61 33 NNW 1014,3 60 0,0
16.01.2017 19:00:00 1,9 -5,1 1,4 38 21 68 37 NNW 1013,8 60 0,0
16.01.2017 18:00:00 2,9 -6,5 2,4 48 26 72 39 NNW 1013,7 60 0,0
16.01.2017 17:00:00 3,8 -6,2 3,6 47 26 74 40 NNW 1013,8 48 0,0
16.01.2017 16:00:00 5,0 -6,0 6,0 47 26 75 40 NNW 1013,6 30 0,0
16.01.2017 15:00:00 5,9 -5,7 7,4 47 25 71 39 NNW 1013,8 32 0,0
16.01.2017 14:00:00 6,4 -5,0 8,0 41 22 65 35 NNW 1013,6 33 0,0
16.01.2017 13:00:00 6,3 -5,7 8,3 37 20 56 30 NNW 1014,7 42 0,0
16.01.2017 12:00:00 5,8 -5,2 6,8 34 18 58 31 NNW 1015,2 10 0,0
16.01.2017 11:00:00 4,2 -4,3 4,4 37 20 61 33 NNW 1014,9 10 0,0
16.01.2017 10:00:00 2,9 -3,9 - 24 13 52 28 NNW 1015,6 19 -
16.01.2017 09:00:00 1,2 -3,9 -0,5 32 17 52 28 NW 1015,2 60 0,0
16.01.2017 08:00:00 0,4 -4,3 -2,1 14 8 31 17 WNW 1015,7 37 0,0
16.01.2017 07:00:00 -0,2 -4,3 - 2 1 16 9 W 1016,4 35 -
16.01.2017 06:00:00 -0,4 -4,1 - 11 6 16 9 NNW 1016,4 40 0,0
16.01.2017 05:00:00 -1,4 -4,6 - 5 3 18 10 N 1016,7 35 0,0
16.01.2017 04:00:00 -0,2 -3,9 -2,2 5 3 21 11 N 1017,1 38 0,0
16.01.2017 03:00:00 0,2 -3,9 - 11 6 28 15 NNW 1018,0 35 0,0
16.01.2017 02:00:00 0,4 -3,9 -1,3 11 6 38 21 N 1018,5 42 0,0
16.01.2017 01:00:00 1,4 -3,7 0,5 26 14 48 26 NNW 1018,5 46 0,0
16.01.2017 00:00:00 1,7 -3,8 0,9 25 14 50 27 NNW 1018,9 51 0,0
15.01.2017 23:00:00 2,2 -3,9 1,5 31 17 53 28 NW 1018,9 58 0,0
15.01.2017 22:00:00 2,6 -4,0 2,1 33 18 59 32 NW 1018,9 60 0,0
15.01.2017 21:00:00 3,0 -4,2 2,4 39 21 60 32 NW 1019,1 60 0,0
15.01.2017 20:00:00 3,1 -4,6 2,4 25 13 48 26 NW 1019,4 60 0,0
15.01.2017 19:00:00 3,6 -5,1 3,0 29 16 56 30 NW 1019,2 60 0,0
15.01.2017 18:00:00 3,9 -5,3 3,3 32 18 56 30 NW 1018,7 60 0,0
15.01.2017 17:00:00 4,7 -5,4 4,4 31 17 80 43 NW 1018,3 54 0,0
15.01.2017 16:00:00 6,0 -5,7 7,3 35 19 75 41 NNW 1017,6 33 0,0
15.01.2017 15:00:00 6,3 -6,0 7,8 45 24 72 39 NNW 1017,6 31 0,0
15.01.2017 14:00:00 6,4 -5,6 7,8 46 25 75 41 NNW 1017,7 27 0,0
15.01.2017 13:00:00 6,2 -4,9 - 41 22 72 39 NNW 1017,7 23 -
15.01.2017 12:00:00 6,1 -4,7 6,9 41 22 69 37 NNW 1017,5 35 0,0
15.01.2017 11:00:00 4,9 -3,9 4,8 44 24 67 36 NNW 1017,8 46 0,0
15.01.2017 10:00:00 3,5 -4,0 1,8 44 24 66 36 NNW 1017,3 56 0,0
15.01.2017 09:00:00 2,0 -4,5 0,8 42 23 74 40 NNW 1017,0 60 0,0
15.01.2017 08:00:00 1,4 -4,5 0,6 42 23 74 40 NNW 1016,5 60 0,0
15.01.2017 07:00:00 1,4 -4,1 0,8 43 23 61 33 NW 1015,7 60 0,0
15.01.2017 06:00:00 1,5 -3,8 0,7 39 21 61 33 NNW 1016,1 60 0,0
15.01.2017 05:00:00 1,9 -4,0 - 35 19 55 30 NW 1016,3 60 0,0
15.01.2017 04:00:00 2,3 -4,5 1,2 35 19 55 30 NW 1016,9 60 0,0
15.01.2017 03:00:00 1,8 -4,5 0,7 31 17 54 29 NNW 1017,4 60 0,0
15.01.2017 02:00:00 1,3 -4,0 0,6 35 19 51 28 NNW 1017,6 60 0,0
15.01.2017 01:00:00 1,3 -4,2 0,7 36 20 51 28 NW 1017,9 60 0,0

tt = temperatuur
td = dauwpunt
tt 5cm = temperatuur 5cm
ff = windsnelheid
fx = windstoten
dd = windrichting
ppp = luchtdruk
vv = zicht
rr = neerslag

Weerstations in de omgeving